| time (UTC) | temp C | wind direction | speed KPH | gust KPH | rain 1hr cm | rain 24hr cm | rain mn cm | humidity % | barometer mb |
| 20260508193924 | 17 | 30 | 8.0 | 0.0 | 0.00 | 0.00 | 0.30 | 87 | 1013.2 |
| 20260508192936 | 17 | 58 | 8.0 | 0.0 | 0.00 | 0.00 | 0.30 | 87 | 1013.1 |
| 20260508191929 | 17 | 67 | 6.4 | 0.0 | 0.00 | 0.00 | 0.30 | 87 | 1013.2 |
| 20260508190925 | 17 | 53 | 6.4 | 0.0 | 0.00 | 0.00 | 0.30 | 86 | 1013.2 |
| 20260508185936 | 18 | 69 | 6.4 | 0.0 | 0.00 | 0.00 | 0.30 | 86 | 1013.1 |
| 20260508184927 | 18 | 67 | 4.8 | 0.0 | 0.00 | 0.00 | 0.30 | 86 | 1013.1 |
| 20260508183924 | 18 | 65 | 6.4 | 0.0 | 0.00 | 0.00 | 0.30 | 85 | 1013.0 |
| 20260508182936 | 18 | 69 | 8.0 | 0.0 | 0.00 | 0.00 | 0.30 | 85 | 1012.8 |
| 20260508173928 | 18 | 96 | 6.4 | 0.0 | 0.00 | 0.00 | 0.30 | 83 | 1012.6 |
| 20260508172918 | 18 | 91 | 6.4 | 0.0 | 0.00 | 0.00 | 0.30 | 82 | 1012.6 |
| 20260508170928 | 18 | 131 | 4.8 | 0.0 | 0.00 | 0.00 | 0.30 | 81 | 1012.4 |
| 20260508165921 | 18 | 91 | 8.0 | 0.0 | 0.00 | 0.00 | 0.30 | 81 | 1012.4 |
| 20260508164933 | 19 | 96 | 6.4 | 0.0 | 0.00 | 0.00 | 0.30 | 82 | 1012.3 |
| 20260508163930 | 19 | 119 | 8.0 | 0.0 | 0.00 | 0.00 | 0.30 | 82 | 1012.2 |
| 20260508162923 | 19 | 119 | 6.4 | 0.0 | 0.00 | 0.00 | 0.30 | 82 | 1012.2 |
| 20260508161935 | 19 | 80 | 6.4 | 0.0 | 0.00 | 0.00 | 0.30 | 83 | 1012.1 |
| 20260508160927 | 19 | 98 | 8.0 | 0.0 | 0.00 | 0.00 | 0.30 | 84 | 1011.9 |
| 20260508155921 | 18 | 113 | 9.7 | 0.0 | 0.00 | 0.00 | 0.30 | 84 | 1011.9 |
| 20260508154934 | 19 | 108 | 8.0 | 0.0 | 0.00 | 0.00 | 0.30 | 84 | 1012.0 |
| 20260508153928 | 19 | 98 | 6.4 | 0.0 | 0.00 | 0.00 | 0.30 | 85 | 1011.8 |
| 20260508152925 | 19 | 107 | 6.4 | 0.0 | 0.00 | 0.00 | 0.30 | 84 | 1011.9 |
| 20260508151916 | 19 | 146 | 4.8 | 0.0 | 0.00 | 0.00 | 0.30 | 84 | 1011.9 |
| 20260508145923 | 18 | 36 | 8.0 | 0.0 | 0.00 | 0.00 | 0.30 | 85 | 1012.2 |
| 20260508144919 | 18 | 80 | 8.0 | 0.0 | 0.00 | 0.00 | 0.30 | 88 | 1012.3 |
| 20260508143930 | 18 | 74 | 9.7 | 0.0 | 0.00 | 0.00 | 0.30 | 89 | 1012.4 |
| 20260508142923 | 18 | 71 | 8.0 | 0.0 | 0.00 | 0.00 | 0.30 | 89 | 1012.5 |
| 20260508140934 | 18 | 44 | 11.3 | 0.0 | 0.00 | 0.00 | 0.30 | 90 | 1012.0 |
| 20260508135925 | 18 | 73 | 11.3 | 0.0 | 0.00 | 0.00 | 0.30 | 90 | 1012.0 |
| 20260508131923 | 18 | 351 | 6.4 | 0.0 | 0.00 | 0.00 | 0.05 | 86 | 1013.8 |
| 20260508130936 | 18 | 49 | 8.0 | 0.0 | 0.00 | 0.00 | 0.00 | 85 | 1013.8 |
| 20260508125927 | 18 | 74 | 11.3 | 0.0 | 0.00 | 0.00 | 0.00 | 85 | 1013.5 |
| 20260508124923 | 18 | 84 | 9.7 | 0.0 | 0.00 | 0.00 | 0.00 | 84 | 1013.5 |
| 20260508122926 | 18 | 78 | 9.7 | 0.0 | 0.00 | 0.00 | 0.00 | 83 | 1013.4 |
| 20260508121937 | 18 | 58 | 9.7 | 0.0 | 0.00 | 0.00 | 0.00 | 83 | 1013.6 |
| 20260508115925 | 19 | 105 | 12.9 | 0.0 | 0.00 | 0.00 | 0.00 | 82 | 1013.2 |
| 20260508114918 | 18 | 115 | 11.3 | 0.0 | 0.00 | 0.00 | 0.00 | 82 | 1013.1 |
| 20260508113929 | 19 | 80 | 12.9 | 0.0 | 0.00 | 0.00 | 0.00 | 82 | 1013.0 |
| 20260508112927 | 18 | 67 | 14.5 | 0.0 | 0.00 | 0.00 | 0.00 | 81 | 1012.9 |
| 20260508111919 | 18 | 104 | 12.9 | 0.0 | 0.00 | 0.00 | 0.00 | 81 | 1012.8 |
| 20260508110931 | 18 | 51 | 11.3 | 0.0 | 0.00 | 0.00 | 0.00 | 81 | 1012.9 |
| 20260508104921 | 18 | 68 | 12.9 | 0.0 | 0.00 | 0.00 | 0.00 | 82 | 1012.9 |
| 20260508102927 | 19 | 58 | 8.0 | 0.0 | 0.00 | 0.00 | 0.00 | 79 | 1013.3 |
| 20260508101922 | 19 | 59 | 6.4 | 0.0 | 0.00 | 0.00 | 0.00 | 78 | 1013.3 |
| 20260508095928 | 20 | 59 | 9.7 | 0.0 | 0.00 | 0.00 | 0.00 | 77 | 1013.0 |
| 20260508094920 | 19 | 63 | 9.7 | 0.0 | 0.00 | 0.00 | 0.00 | 77 | 1013.0 |
| 20260508093936 | 18 | 65 | 11.3 | 0.0 | 0.00 | 0.00 | 0.00 | 78 | 1012.9 |
| 20260508092929 | 18 | 62 | 11.3 | 0.0 | 0.00 | 0.00 | 0.00 | 80 | 1012.8 |
| 20260508090936 | 18 | 44 | 12.9 | 0.0 | 0.00 | 0.00 | 0.00 | 82 | 1012.5 |
| 20260508085932 | 18 | 65 | 14.5 | 0.0 | 0.00 | 0.00 | 0.00 | 83 | 1012.5 |
| 20260508084923 | 18 | 42 | 9.7 | 0.0 | 0.00 | 0.00 | 0.00 | 85 | 1012.6 |
| 20260508083936 | 17 | 23 | 9.7 | 0.0 | 0.00 | 0.00 | 0.00 | 86 | 1012.9 |
| 20260508082932 | 17 | 360 | 11.3 | 0.0 | 0.00 | 0.00 | 0.00 | 87 | 1012.7 |
| 20260508081924 | 17 | 16 | 9.7 | 0.0 | 0.00 | 0.00 | 0.00 | 87 | 1012.9 |
| 20260508080936 | 17 | 13 | 11.3 | 0.0 | 0.00 | 0.00 | 0.00 | 87 | 1012.9 |
| 20260508075927 | 17 | 19 | 12.9 | 0.0 | 0.00 | 0.00 | 0.00 | 88 | 1012.8 |
| 20260508074923 | 17 | 12 | 9.7 | 0.0 | 0.00 | 0.00 | 0.00 | 88 | 1012.7 |
| 20260508073937 | 17 | 26 | 9.7 | 0.0 | 0.00 | 0.00 | 0.00 | 89 | 1012.6 |
| 20260508072928 | 17 | 13 | 6.4 | 0.0 | 0.00 | 0.00 | 0.00 | 89 | 1012.6 |
| 20260508071923 | 16 | 12 | 6.4 | 0.0 | 0.00 | 0.00 | 0.00 | 89 | 1012.6 |
| 20260508070934 | 16 | 360 | 8.0 | 0.0 | 0.00 | 0.00 | 0.00 | 89 | 1012.6 |
| 20260508062932 | 16 | 5 | 11.3 | 0.0 | 0.00 | 0.00 | 0.00 | 90 | 1012.0 |
| 20260508061924 | 16 | 24 | 6.4 | 0.0 | 0.00 | 0.00 | 0.00 | 91 | 1012.2 |
| 20260508060937 | 16 | 22 | 6.4 | 0.0 | 0.00 | 0.00 | 0.00 | 91 | 1011.8 |
| 20260508054926 | 15 | 40 | 3.2 | 0.0 | 0.00 | 0.00 | 0.00 | 91 | 1011.8 |
| 20260508051927 | 15 | 40 | 6.4 | 0.0 | 0.00 | 0.00 | 0.00 | 90 | 1011.5 |
| 20260508045919 | 15 | 40 | 6.4 | 0.0 | 0.00 | 0.00 | 0.00 | 90 | 1011.1 |
| 20260508044930 | 15 | 28 | 8.0 | 0.0 | 0.00 | 0.00 | 0.00 | 90 | 1011.2 |
| 20260508043928 | 15 | 360 | 6.4 | 0.0 | 0.00 | 0.00 | 0.00 | 90 | 1011.2 |
| 20260508042919 | 15 | 5 | 8.0 | 0.0 | 0.00 | 0.00 | 0.00 | 90 | 1011.2 |
| 20260508041930 | 15 | 355 | 9.7 | 0.0 | 0.00 | 0.00 | 0.00 | 91 | 1011.0 |
| 20260508040922 | 15 | 11 | 9.7 | 0.0 | 0.00 | 0.00 | 0.00 | 91 | 1010.8 |
| 20260508034932 | 15 | 346 | 11.3 | 0.0 | 0.00 | 0.00 | 0.00 | 90 | 1010.9 |
| 20260508033924 | 15 | 350 | 11.3 | 0.0 | 0.00 | 0.00 | 0.00 | 90 | 1011.1 |
| 20260508032937 | 16 | 5 | 11.3 | 0.0 | 0.00 | 0.00 | 0.00 | 90 | 1011.2 |
| 20260508031933 | 15 | 5 | 11.3 | 0.0 | 0.00 | 0.00 | 0.00 | 90 | 1011.0 |
| 20260508030925 | 15 | 5 | 14.5 | 0.0 | 0.00 | 0.00 | 0.00 | 90 | 1010.9 |
| 20260508024936 | 15 | 19 | 14.5 | 0.0 | 0.00 | 0.00 | 0.00 | 89 | 1011.0 |
| 20260508023928 | 15 | 9 | 14.5 | 0.0 | 0.00 | 0.00 | 0.00 | 89 | 1011.2 |
| 20260508022919 | 15 | 355 | 16.1 | 0.0 | 0.00 | 0.00 | 0.00 | 88 | 1011.2 |
| 20260508021932 | 15 | 30 | 16.1 | 0.0 | 0.00 | 0.00 | 0.00 | 89 | 1011.1 |
| 20260508020929 | 16 | 360 | 14.5 | 0.0 | 0.00 | 0.00 | 0.00 | 89 | 1011.3 |
| 20260508015920 | 15 | 17 | 12.9 | 0.0 | 0.00 | 0.00 | 0.00 | 89 | 1011.4 |
| 20260508014933 | 15 | 9 | 12.9 | 0.0 | 0.00 | 0.00 | 0.00 | 89 | 1011.5 |
| 20260508013929 | 15 | 17 | 14.5 | 0.0 | 0.00 | 0.00 | 0.00 | 89 | 1011.4 |
| 20260508011936 | 15 | 5 | 14.5 | 0.0 | 0.00 | 0.00 | 0.00 | 89 | 1011.5 |
| 20260508010930 | 15 | 12 | 16.1 | 0.0 | 0.00 | 0.00 | 0.00 | 89 | 1011.5 |
| 20260508005925 | 15 | 5 | 12.9 | 0.0 | 0.00 | 0.00 | 0.00 | 90 | 1011.6 |
| 20260508004937 | 15 | 346 | 11.3 | 0.0 | 0.00 | 0.00 | 0.00 | 90 | 1011.8 |
| 20260508001921 | 15 | 15 | 16.1 | 0.0 | 0.00 | 0.00 | 0.00 | 90 | 1011.6 |
| 20260508000931 | 15 | 360 | 16.1 | 0.0 | 0.00 | 0.00 | 0.00 | 90 | 1011.4 |
| 20260507235923 | 15 | 20 | 16.1 | 0.0 | 0.00 | 0.00 | 1.50 | 90 | 1011.5 |
| 20260507234936 | 15 | 11 | 12.9 | 0.0 | 0.00 | 0.00 | 1.50 | 90 | 1011.4 |
| 20260507233932 | 15 | 346 | 14.5 | 0.0 | 0.00 | 0.00 | 1.50 | 90 | 1011.4 |
| 20260507232925 | 15 | 5 | 16.1 | 0.0 | 0.00 | 0.00 | 1.50 | 90 | 1011.4 |
| 20260507230933 | 15 | 40 | 11.3 | 0.0 | 0.00 | 0.00 | 1.50 | 90 | 1011.4 |
| 20260507225928 | 15 | 39 | 14.5 | 0.0 | 0.00 | 0.00 | 1.50 | 91 | 1011.5 |
| 20260507224922 | 15 | 18 | 16.1 | 0.0 | 0.00 | 0.00 | 1.50 | 91 | 1011.6 |
| 20260507223917 | 15 | 336 | 12.9 | 0.0 | 0.00 | 0.00 | 1.50 | 91 | 1011.9 |
| 20260507221925 | 15 | 5 | 11.3 | 0.0 | 0.00 | 0.00 | 1.50 | 91 | 1011.9 |
| 20260507220917 | 14 | 5 | 16.1 | 0.0 | 0.00 | 0.00 | 1.50 | 91 | 1012.0 |
| 20260507215928 | 14 | 355 | 16.1 | 0.0 | 0.00 | 0.00 | 1.50 | 91 | 1012.0 |
| 20260507214925 | 14 | 11 | 17.7 | 0.0 | 0.00 | 0.00 | 1.50 | 91 | 1011.9 |
| 20260507213938 | 14 | 18 | 17.7 | 0.0 | 0.00 | 0.00 | 1.50 | 90 | 1012.0 |
| 20260507212928 | 14 | 13 | 17.7 | 0.0 | 0.00 | 0.00 | 1.50 | 90 | 1012.1 |
| 20260507211925 | 14 | 12 | 14.5 | 0.0 | 0.00 | 0.00 | 1.50 | 90 | 1012.2 |
| 20260507210917 | 14 | 11 | 14.5 | 0.0 | 0.00 | 0.00 | 1.45 | 90 | 1012.3 |
| 20260507205931 | 14 | 355 | 16.1 | 0.0 | 0.00 | 0.00 | 1.37 | 89 | 1012.3 |
| 20260507202918 | 14 | 21 | 19.3 | 0.0 | 0.00 | 0.00 | 1.09 | 87 | 1012.2 |
| 20260507201930 | 14 | 360 | 19.3 | 0.0 | 0.00 | 0.00 | 1.04 | 87 | 1012.0 |
| 20260507200922 | 15 | 5 | 17.7 | 0.0 | 0.00 | 0.00 | 0.99 | 86 | 1012.2 |
| 20260507194931 | 15 | 346 | 16.1 | 0.0 | 0.00 | 0.00 | 0.89 | 86 | 1012.1 |